Weather in Sheino

Russia / Belgorod Oblast     50°40′51″N   36°53′08″E
temp.,
°C
wind,
m/s
gust,
m/s
humid.,
%
clouds,
%
prec.,
mm/h
press.,
hPa
HPBL,
m
13 april, tue
tue1300:00+12se347288 0.0 102361
03:00+11se228057 0.0 102321
06:00+9ese368587 0.0 1023103
09:00+14ese5966100 0.0 1022358
12:00+17se6105060 0.0 10211104
15:00+18se81148100 0.0 10201904
18:00+15se6106494 0.0 10201230
21:00+13sse5108113 0.1 1021516
14 april, wed
wed1400:00+11s368864 0.1 1021290
03:00+10sse2490100 0.4 1021226
06:00+10e2288100 0.1 101967
09:00+12ese1276100 0.1 1019368
12:00+15sse236681 0.2 1018945
15:00+15s4565100 1.9 1017946
18:00+13ssw2374100 1.6 1016250
21:00+11wnw228179 1.9 101634
15 april, thu
thu1500:00+10n2285100 0.0 101518
03:00+10n229191 0.9 101541
06:00+8wsw22931 0.4 101416
09:00+12sw337290 0.4 1015412
12:00+15ssw4555100 0.0 10141305
15:00+15ssw555434 0.0 10141397
18:00+15s2558100 0.0 1013326
21:00+11sw3587100 1.2 1014223
16 april, fri
fri1600:00+10sse3888100 1.1 1014496
03:00+10ese369154 2.7 1013293
06:00+9sse2591100 0.4 1014230
09:00+10s567687 0.4 1015789
12:00+12s6760100 0.1 10151503
15:00+11s5759100 0.1 10161170
18:00+11sw466060 0.0 1016698
21:00+7ssw23724 0.0 101748
17 april, sat
sat1700:00+6n11773 0.0 101810
03:00+6n1176100 0.0 101811
06:00+6nne1178100 0.0 101814
09:00+9nw236899 0.0 1018558
12:00+11nnw3462100 0.0 10181302
15:00+11n1166100 0.2 1019737
18:00+11ne3268100 0.1 1020338
21:00+7ene3486100 0.2 1021112